GW0203 Weather Reports


time (UTC)temp
F
wind
direction
speed
knots
gust
knots
rain 1hr
in
rain 24hr
in
rain mn
in
humidity
%
barometer
mb
20260905003720 75 334 1.7 4.3 0.00 0.00 0.00 69 1008.0
20260905002216 75 270 0.0 5.2 0.00 0.00 0.00 69 1007.9
20260905000712 75 344 0.0 4.3 0.00 0.00 0.00 69 1007.7
20260904235208 75 337 0.0 2.6 0.00 0.00 0.00 69 1007.6
20260904233706 76 331 0.0 3.5 0.00 0.00 0.00 66 1007.3
20260904232206 76 0 0.0 3.5 0.00 0.00 0.00 67 1007.3
20260904230702 77 315 0.0 3.5 0.00 0.00 0.00 65 1007.3
20260904225202 78 348 0.0 2.6 0.00 0.00 0.00 64 1007.2
20260904223702 79 15 0.0 5.2 0.00 0.00 0.00 62 1007.2
20260904222200 81 307 1.7 3.5 0.00 0.00 0.00 58 1007.2
20260904220701 81 305 5.2 5.2 0.00 0.00 0.00 58 1007.1
20260904215158 81 314 3.5 6.1 0.00 0.00 0.00 56 1006.9
20260904213657 83 321 7.8 9.6 0.00 0.00 0.00 53 1007.2
20260904212155 83 349 4.3 12.2 0.00 0.00 0.00 51 1006.9
20260904210651 82 0 4.3 8.7 0.00 0.00 0.00 53 1007.0
20260904205149 84 0 1.7 6.1 0.00 0.00 0.00 48 1006.8
20260904203649 83 335 7.0 12.2 0.00 0.00 0.00 48 1007.0
20260904202143 85 288 0.0 8.7 0.00 0.00 0.00 49 1006.9
20260904200643 86 329 4.3 6.1 0.00 0.00 0.00 51 1007.1
20260904195143 86 288 2.6 7.0 0.00 0.00 0.00 52 1007.0
20260904193638 85 326 6.1 7.8 0.00 0.00 0.00 54 1007.3
20260904192136 84 351 1.7 9.6 0.00 0.00 0.00 58 1006.9
20260904190637 85 312 5.2 10.4 0.00 0.00 0.00 56 1007.3
20260904185135 82 326 4.3 7.8 0.00 0.00 0.00 57 1007.0
20260904183631 87 67 0.0 2.6 0.00 0.00 0.00 54 1007.0
20260904182127 84 315 3.5 5.2 0.00 0.00 0.00 57 1007.2
20260904180625 86 0 2.6 7.0 0.00 0.00 0.00 54 1007.2
20260904175123 85 345 0.9 7.8 0.00 0.00 0.00 55 1007.3
20260904173621 86 26 0.9 6.1 0.00 0.00 0.00 54 1007.3
20260904172117 84 339 3.5 9.6 0.00 0.00 0.00 56 1007.6
20260904170616 85 54 0.9 5.2 0.00 0.00 0.00 57 1007.5
20260904165115 83 262 0.0 6.1 0.00 0.00 0.00 60 1007.5
20260904163612 83 10 4.3 7.0 0.00 0.00 0.00 60 1007.7
20260904162108 82 0 0.9 5.2 0.00 0.00 0.00 63 1007.7
20260904160606 82 173 0.0 7.8 0.00 0.00 0.00 62 1007.8
20260904155102 82 350 1.7 7.0 0.00 0.00 0.00 66 1008.0
20260904153601 82 105 0.9 6.1 0.00 0.00 0.00 66 1008.2
20260904152100 81 0 2.6 7.8 0.00 0.00 0.00 67 1008.1
20260904150555 80 322 4.3 8.7 0.00 0.00 0.00 69 1008.1
20260904145050 81 90 1.7 11.3 0.00 0.00 0.00 67 1008.1
20260904143549 81 293 2.6 4.3 0.00 0.00 0.00 68 1008.0
20260904142048 80 116 0.0 4.3 0.00 0.00 0.00 74 1008.1
20260904140545 78 6 5.2 7.8 0.00 0.00 0.00 81 1008.3
20260904135041 77 352 2.6 4.3 0.00 0.00 0.00 85 1008.3
20260904133537 76 233 1.7 3.5 0.00 0.00 0.00 89 1008.6
20260904132033 75 357 2.6 4.3 0.00 0.00 0.00 92 1008.7
20260904130528 75 359 0.0 5.2 0.00 0.00 0.00 91 1008.7
20260904125026 74 5 0.0 4.3 0.00 0.00 0.00 93 1008.5
20260904123522 73 235 4.3 4.3 0.00 0.00 0.00 94 1008.8
20260904122019 73 344 2.6 3.5 0.00 0.00 0.00 97 1009.0
20260904120518 73 220 1.7 2.6 0.00 0.00 0.00 99 1008.7
20260904115014 72 3 2.6 2.6 0.00 0.00 0.00 99 1008.7
20260904113510 71 246 0.0 2.6 0.00 0.00 0.00 99 1009.1
20260904112006 71 20 0.0 1.7 0.00 0.00 0.00 99 1008.8
20260904110503 71 180 0.0 2.6 0.00 0.00 0.00 99 1008.8
20260904104959 71 195 0.0 1.7 0.00 0.00 0.00 99 1008.8
20260904103457 70 172 0.0 1.7 0.00 0.00 0.00 99 1008.5
20260904101955 70 350 0.0 1.7 0.00 0.00 0.00 99 1008.5
20260904100455 70 195 0.0 2.6 0.00 0.00 0.00 99 1008.5
20260904094950 70 99 0.0 1.7 0.00 0.00 0.00 99 1008.3
20260904093449 70 15 0.0 0.0 0.00 0.00 0.00 99 1008.4
20260904091948 70 15 0.0 0.0 0.00 0.00 0.00 99 1008.3
20260904090445 70 15 0.0 0.9 0.00 0.00 0.00 99 1008.1
20260904084941 70 151 0.0 0.9 0.00 0.00 0.00 99 1008.3
20260904083440 70 90 0.0 0.9 0.00 0.00 0.00 99 1008.3
20260904081937 70 195 0.0 0.0 0.00 0.00 0.00 99 1008.3
20260904080435 70 170 0.0 1.7 0.00 0.00 0.00 99 1008.4
20260904074931 70 145 0.0 0.0 0.00 0.00 0.00 99 1008.2
20260904073429 70 90 0.0 0.0 0.00 0.00 0.00 99 1008.5
20260904071927 71 180 0.9 0.9 0.00 0.00 0.00 99 1008.8
20260904070422 71 175 0.0 1.7 0.00 0.00 0.00 99 1008.9
20260904064918 71 180 0.0 0.9 0.00 0.00 0.00 99 1008.9
20260904063412 71 180 0.0 2.6 0.00 0.00 0.00 99 1009.2
20260904061910 70 0 0.0 0.0 0.00 0.00 0.00 99 1009.1
20260904060410 70 54 0.0 1.7 0.00 0.00 0.00 99 1009.3
20260904054908 70 290 1.7 2.6 0.00 0.00 0.00 99 1009.3
20260904053404 70 194 2.6 2.6 0.00 0.00 0.00 99 1009.4
20260904051904 70 159 0.0 1.7 0.00 0.00 0.00 99 1009.8
20260904050402 71 168 1.7 2.6 0.00 0.00 0.00 99 1009.7
20260904044902 71 189 4.3 4.3 0.00 0.00 0.00 99 1009.9
20260904043358 71 175 0.0 2.6 0.00 0.00 0.00 99 1010.2
20260904041855 71 166 0.0 0.0 0.00 0.00 0.00 99 1010.3
20260904040353 71 270 0.0 1.7 0.00 0.00 0.00 99 1010.4
20260904034851 71 193 0.0 2.6 0.00 0.24 0.24 99 1010.1
20260904033350 71 148 0.0 1.7 0.00 0.24 0.24 99 1010.3
20260904031845 72 324 0.0 2.6 0.00 0.24 0.24 99 1010.5
20260904030344 72 190 1.7 1.7 0.00 0.24 0.24 99 1010.3
20260904024841 72 172 0.0 1.7 0.00 0.24 0.24 99 1010.3
20260904023340 72 189 4.3 4.3 0.00 0.24 0.24 99 1010.6
20260904021838 73 229 1.7 2.6 0.00 0.24 0.24 98 1010.8
20260904020335 73 209 0.9 2.6 0.00 0.24 0.24 98 1010.9
20260904014833 73 170 0.0 4.3 0.00 0.24 0.24 98 1010.9
20260904013332 73 255 0.0 2.6 0.00 0.24 0.24 98 1011.1
20260904011827 73 204 1.7 2.6 0.00 0.24 0.24 98 1011.3
20260904010326 73 255 0.0 1.7 0.00 0.24 0.24 97 1011.3